This is the latest recevied weather packets stored in our database for station/object DO7ZT-13. If no packets are shown the sender has not sent any weather packets the latest 1 day(s).
| Time | Temp. | Humidity | Pressure | Rain* | Wind** | Luminosity | Snow |
|---|---|---|---|---|---|---|---|
| 1778010923 | 15° C | 79% | 1006.8 hPa | 0 mm | 1.34 m/s, 60° | - | - |
| 1778010610 | 15° C | 79% | 1006.8 hPa | 0 mm | 0.45 m/s, 30° | - | - |
| 1778010323 | 15° C | 79% | 1006.5 hPa | 0 mm | 0.45 m/s, 70° | - | - |
| 1778010010 | 15° C | 78% | 1006.5 hPa | 0 mm | 0.89 m/s, 12° | - | - |
| 1778009722 | 15° C | 78% | 1006.5 hPa | 0 mm | 0.89 m/s, 48° | - | - |
| 1778009410 | 15° C | 78% | 1006.5 hPa | 0 mm | 1.34 m/s, 0° | - | - |
| 1778009123 | 15° C | 78% | 1006.5 hPa | 0 mm | 0.89 m/s, 12° | - | - |
| 1778008810 | 15° C | 78% | 1006.5 hPa | 0 mm | 0.45 m/s, 6° | - | - |
| 1778008522 | 15° C | 78% | 1006.5 hPa | 0 mm | 0.45 m/s, 324° | - | - |
| 1778008210 | 15° C | 77% | 1006.5 hPa | 0 mm | 0.89 m/s, 336° | - | - |
| 1778007923 | 16.11° C | 77% | 1006.5 hPa | 0 mm | 0.45 m/s, 48° | - | - |
| 1778007610 | 16.11° C | 77% | 1006.3 hPa | 0 mm | 0.89 m/s, 354° | - | - |
| 1778007323 | 16.11° C | 77% | 1006.3 hPa | 0 mm | 0.45 m/s, 342° | - | - |
| 1778007010 | 16.11° C | 76% | 1006.3 hPa | 0 mm | 0.45 m/s, 354° | - | - |
| 1778006722 | 16.11° C | 76% | 1006.5 hPa | 0 mm | 0.45 m/s, 6° | - | - |
| 1778006410 | 16.11° C | 75% | 1006.5 hPa | 0 mm | 0.89 m/s, 324° | - | - |
| 1778006122 | 16.11° C | 75% | 1006.5 hPa | 0 mm | 1.34 m/s, 342° | - | - |
| 1778005810 | 16.11° C | 75% | 1006.4 hPa | 0 mm | 1.34 m/s, 330° | - | - |
| 1778005522 | 16.11° C | 75% | 1006.4 hPa | 0 mm | 0.89 m/s, 336° | - | - |
| 1778005210 | 16.11° C | 74% | 1006.4 hPa | 0 mm | 0.45 m/s, 12° | - | - |
| 1778004922 | 16.11° C | 74% | 1006.5 hPa | 0 mm | 0.89 m/s, 354° | - | - |
| 1778004609 | 17.22° C | 73% | 1006.5 hPa | 0 mm | 0.89 m/s, 342° | - | - |
| 1778004335 | 17.22° C | 73% | 1006.5 hPa | 0 mm | 0.89 m/s, 342° | - | - |
| 1778004022 | 17.22° C | 73% | 1006.6 hPa | 0 mm | 0.89 m/s, 342° | - | - |
| 1778003709 | 17.22° C | 72% | 1006.6 hPa | 0 mm | 0.45 m/s, 354° | - | - |
* Rain latest hour (hover to see other rain measurements)
** Current wind speed in m/s (hover to see current wind gust speed)